{"data":{"norad_id":65617,"intl_designator":"2025-209A","name":"HJS-7A","alt_names":[],"object_type":"PAYLOAD","status":"ACTIVE","operator":null,"country":"PRC","launch_date":"2025-09-16","launch_site_code":"JSC","launch_vehicle":null,"mission":null,"orbit_class":"UNKNOWN","rcs_meters":null,"size_class":null,"mass_kg":null,"dimensions":null,"purposes":[],"wikipedia_slug":null,"has_3d_model":false,"image_url":null,"decayed_at":null,"tle_current":{"epoch":"2026-05-25T01:22:34.340160Z","epoch_age_seconds":69786,"freshness":"FRESH","line1":"1 65617U 25209A   26145.05734190 -.00000076  00000+0  94006-4 0  9996","line2":"2 65617  49.9990  84.0375 0000994 343.9953  16.0893 13.41461371 34568","mean_motion":13.41461371,"eccentricity":9.94e-5,"inclination_deg":49.999,"raan_deg":84.0375,"arg_perigee_deg":343.9953,"mean_anomaly_deg":16.0893,"bstar":9.4006e-5,"rev_number":3456,"period_min":107.34561807967,"perigee_km":1103.0967233,"apogee_km":1104.5841404135,"semimajor_km":7481.9774318567,"source":"CELESTRAK","updated_at":"2026-05-25T13:38:05.554026Z"}}}